Location: Broekland
(52.3610°N, 6.2005°E)
Time: 00:36:42
(UTC+00:00)

USA 229 DEB - Pass Details

Date: 19 May 2025
Orbit: 872 x 1339 km, 63.4° (Epoch: 20 June)

Event Time Altitude Azimuth Distance (km) Brightness Sun altitude
Exits shadow 23:20:43 27° 195° (SSW) 1,748 4.3 -17.6°
Maximum altitude 23:24:07 59° 126° (SE) 1,137 3.6 -17.6°
Drops below altitude 10° 23:30:48 10° 49° (NE) 2,923 6.5 -17.7°
Sets 23:33:38 0° 46° (NE) 3,956 7.4 -17.7°
